Stations météo

réclame
Mon MeteoGroup
Decimomannu, Italie (16546): Température de l'air & dewpoint: 13.06.2018 02:00:00 - 19.06.2018 02:00:00 (CEST)Decimomannu, Italie (16546): Vitesse du vent: 13.06.2018 02:00:00 - 19.06.2018 02:00:00 (CEST)Decimomannu, Italie (16546): Direction du vent: 13.06.2018 02:00:00 - 19.06.2018 02:00:00 (CEST)Decimomannu, Italie (16546): reduced air pressure: 13.06.2018 02:00:00 - 19.06.2018 02:00:00 (CEST)Decimomannu, Italie (16546): visibility: 13.06.2018 02:00:00 - 19.06.2018 02:00:00 (CEST)
Date & Time tt [°C] td [°C] ff [km/h] ff [knt] dd ppp [hPa] vv [km]
19.06.2018 02:00:00 - - - - - - -
19.06.2018 01:00:00 19,0 19,0 9 5 NNW - 10
19.06.2018 00:00:00 20,0 20,0 9 5 NNW - 10
18.06.2018 23:00:00 20,4 20,2 11 6 NNW 1015,9 15
18.06.2018 22:00:00 20,0 19,0 16 9 N - 10
18.06.2018 21:00:00 22,0 21,0 16 9 NNW - 10
18.06.2018 20:00:00 24,8 21,3 24 13 NW 1013,8 20
18.06.2018 19:00:00 27,0 21,0 21 11 WNW - 10
18.06.2018 18:00:00 29,0 21,0 13 7 WNW - 10
18.06.2018 17:00:00 28,2 20,7 26 14 NNW 1013,4 20
18.06.2018 16:00:00 29,0 20,0 22 12 NNW - 10
18.06.2018 15:00:00 - - - - - - -
18.06.2018 14:00:00 27,8 20,9 24 13 NW 1014,4 15
18.06.2018 13:00:00 - - - - - - -
18.06.2018 12:00:00 - - - - - - -
18.06.2018 11:00:00 25,0 20,3 28 15 NNW 1015,5 15
18.06.2018 10:00:00 24,0 20,0 22 12 NNW - 10
18.06.2018 09:00:00 22,0 20,0 18 10 NW - 10
18.06.2018 08:00:00 20,2 19,2 16 9 NNW 1015,5 10
18.06.2018 07:00:00 20,0 19,0 13 7 NNW - 10
18.06.2018 06:00:00 20,0 19,0 16 9 NW - 10
18.06.2018 05:00:00 19,8 18,8 11 6 NNW 1014,9 12
18.06.2018 04:00:00 19,0 18,0 11 6 NNW - 10
18.06.2018 03:00:00 19,0 18,0 9 5 N - 10
18.06.2018 02:00:00 18,6 18,1 11 6 N 1015,9 12
18.06.2018 01:00:00 20,0 19,0 16 9 NNW - 10
18.06.2018 00:00:00 20,0 20,0 21 11 NNW - 10
17.06.2018 23:00:00 20,4 20,1 18 10 NNW 1016,4 12
17.06.2018 22:00:00 21,0 21,0 24 13 NNW - 10
17.06.2018 21:00:00 22,0 21,0 21 11 NW - 10
17.06.2018 20:00:00 25,0 22,1 21 11 NW 1014,6 30
17.06.2018 19:00:00 26,0 22,0 28 15 NW - 10
17.06.2018 18:00:00 28,0 21,0 29 16 NNW - 10
17.06.2018 17:00:00 28,8 19,7 29 16 NNW 1014,2 20
17.06.2018 16:00:00 29,0 20,0 35 19 NW - 10
17.06.2018 15:00:00 29,0 21,0 18 10 NW - 10
17.06.2018 14:00:00 29,0 19,0 11 6 NW 1014,3 20
17.06.2018 13:00:00 27,0 20,0 15 8 WNW - 10
17.06.2018 12:00:00 26,0 21,0 13 7 NW - 10
17.06.2018 11:00:00 25,0 20,5 9 5 NW 1014,8 20
17.06.2018 10:00:00 23,0 20,0 9 5 NW - 10
17.06.2018 09:00:00 22,0 20,0 8 4 NW - 10
17.06.2018 08:00:00 18,8 17,7 4 2 NW 1014,4 14
17.06.2018 07:00:00 16,0 15,0 5 3 WNW - 10
17.06.2018 06:00:00 17,0 16,0 8 4 WNW - 10
17.06.2018 05:00:00 17,2 16,2 11 6 N 1014,3 12
17.06.2018 04:00:00 18,0 17,0 11 6 N - 10
17.06.2018 03:00:00 18,0 17,0 11 6 N - 10
17.06.2018 02:00:00 18,4 18,1 8 4 N 1014,7 15
17.06.2018 01:00:00 19,0 18,0 13 7 NNW - 10
17.06.2018 00:00:00 19,0 19,0 11 6 N - 10
16.06.2018 23:00:00 20,4 20,1 16 9 NNW 1013,8 20
16.06.2018 22:00:00 21,0 20,0 16 9 NNW - 10
16.06.2018 21:00:00 22,0 21,0 21 11 NW - 10
16.06.2018 20:00:00 24,6 21,1 21 11 NW 1012,5 20
16.06.2018 19:00:00 25,0 20,0 29 16 NW - 10
16.06.2018 18:00:00 27,0 20,0 29 16 NW - 10
16.06.2018 17:00:00 28,0 18,1 34 18 NW 1011,5 30
16.06.2018 16:00:00 29,0 18,0 31 17 NW - 10
16.06.2018 15:00:00 29,0 17,0 24 13 NW - 10
16.06.2018 14:00:00 28,6 19,0 22 12 NW 1012,0 30
16.06.2018 13:00:00 28,0 20,0 21 11 NW - 10
16.06.2018 12:00:00 27,0 20,0 18 10 NNW - 10
16.06.2018 11:00:00 24,6 20,1 13 7 NW 1012,4 25
16.06.2018 10:00:00 23,0 20,0 18 10 NW - 10
16.06.2018 09:00:00 21,0 19,0 15 8 NNW - 10
16.06.2018 08:00:00 18,2 17,2 4 2 NW 1012,7 12
16.06.2018 07:00:00 15,0 14,0 8 4 NW - 10
16.06.2018 06:00:00 16,0 15,0 5 3 NNW - 10
16.06.2018 05:00:00 16,0 15,0 8 4 N 1012,4 10
16.06.2018 04:00:00 17,0 16,0 9 5 NNW - 10
16.06.2018 03:00:00 17,0 16,0 8 4 NNW - 10
16.06.2018 02:00:00 17,6 17,0 8 4 N 1012,9 10
16.06.2018 01:00:00 18,0 18,0 4 2 NNE - 10
16.06.2018 00:00:00 19,0 19,0 5 3 NNW - 10
15.06.2018 23:00:00 19,2 18,9 5 3 WNW 1012,4 10
15.06.2018 22:00:00 20,0 20,0 13 7 NW - 10
15.06.2018 21:00:00 21,0 19,0 18 10 NW - 10
15.06.2018 20:00:00 23,0 20,3 22 12 NW 1011,0 20
15.06.2018 19:00:00 24,0 20,0 26 14 NNW - 10
15.06.2018 18:00:00 25,0 21,0 26 14 NW - 10
15.06.2018 17:00:00 25,0 19,6 28 15 NW 1010,7 20
15.06.2018 16:00:00 26,0 16,0 29 16 NW - 10
15.06.2018 15:00:00 27,0 17,0 29 16 NNW - 10
15.06.2018 14:00:00 27,0 18,6 29 16 NW 1009,9 20
15.06.2018 13:00:00 27,0 20,0 26 14 WNW - 10
15.06.2018 12:00:00 26,0 21,0 21 11 NW - 10
15.06.2018 11:00:00 24,4 20,7 22 12 NNW 1010,0 20
15.06.2018 10:00:00 24,0 22,0 22 12 NNW - 10
15.06.2018 09:00:00 21,0 20,0 21 11 NNW - 10
15.06.2018 08:00:00 18,6 17,6 13 7 NNW 1009,9 8
15.06.2018 07:00:00 17,0 16,0 13 7 N - 8
15.06.2018 06:00:00 17,0 16,0 5 3 NNW - 8
15.06.2018 05:00:00 16,2 15,4 8 4 N 1009,7 10
15.06.2018 04:00:00 17,0 16,0 4 2 NNW - 10
15.06.2018 03:00:00 18,0 17,0 5 3 N - 10
15.06.2018 02:00:00 18,0 17,5 8 4 WNW 1010,5 10
15.06.2018 01:00:00 18,0 18,0 15 8 NW - 10
15.06.2018 00:00:00 19,0 17,0 5 3 NW - 8
14.06.2018 23:00:00 19,0 18,7 5 3 NW 1010,0 8
14.06.2018 22:00:00 20,0 20,0 11 6 W - 8
14.06.2018 21:00:00 21,0 20,0 18 10 NW - 8
14.06.2018 20:00:00 21,4 20,6 21 11 WNW 1009,0 10
14.06.2018 19:00:00 22,0 20,0 28 15 WNW - 10
14.06.2018 18:00:00 23,0 20,0 29 16 NW - 10
14.06.2018 17:00:00 23,0 19,4 31 17 WNW 1008,3 10
14.06.2018 16:00:00 23,0 20,0 34 18 NW - 10
14.06.2018 15:00:00 24,0 20,0 34 18 WNW - 10
14.06.2018 14:00:00 23,2 19,6 26 14 NW 1008,0 10
14.06.2018 13:00:00 24,0 20,0 24 13 NW - 10
14.06.2018 12:00:00 24,0 20,0 29 16 WNW - 10
14.06.2018 11:00:00 22,6 20,0 22 12 NW 1007,6 10
14.06.2018 10:00:00 22,0 19,0 28 15 WNW - 10
14.06.2018 09:00:00 21,0 19,0 22 12 WNW - 10
14.06.2018 08:00:00 19,4 19,1 16 9 W 1007,1 10
14.06.2018 07:00:00 20,0 19,0 18 10 WNW - 10
14.06.2018 06:00:00 19,0 18,0 15 8 W - 10
14.06.2018 05:00:00 19,0 18,5 13 7 WNW 1006,6 12
14.06.2018 04:00:00 20,0 19,0 13 7 W - 10
14.06.2018 03:00:00 20,0 19,0 18 10 WNW - 10
14.06.2018 02:00:00 20,0 20,0 13 7 W 1007,0 12
14.06.2018 01:00:00 20,0 18,0 16 9 WNW - 10
14.06.2018 00:00:00 20,0 18,0 29 16 W - 10
13.06.2018 23:00:00 20,4 17,6 28 15 W 1007,9 12
13.06.2018 22:00:00 20,0 18,0 18 10 W - 10
13.06.2018 21:00:00 20,0 19,0 21 11 WNW - 10
13.06.2018 20:00:00 20,2 19,9 28 15 W 1007,7 25
13.06.2018 19:00:00 23,0 19,0 31 17 WNW - 10
13.06.2018 18:00:00 24,0 20,0 29 16 WNW - 10
13.06.2018 17:00:00 24,0 19,5 34 18 WNW 1007,8 20
13.06.2018 16:00:00 25,0 19,0 24 13 WNW - 10
13.06.2018 15:00:00 25,0 20,0 31 17 WNW - 10
13.06.2018 14:00:00 24,2 19,3 26 14 WNW 1008,9 20
13.06.2018 13:00:00 24,0 20,0 26 14 NW - 10
13.06.2018 12:00:00 21,0 20,0 31 17 NW - 8
13.06.2018 11:00:00 23,0 20,9 29 16 WSW 1008,6 15
13.06.2018 10:00:00 23,0 21,0 28 15 WSW - 10
13.06.2018 09:00:00 23,0 21,0 22 12 WSW - 10
13.06.2018 08:00:00 20,0 18,8 5 3 NW 1009,8 12
13.06.2018 07:00:00 17,0 16,0 4 2 E - 10
13.06.2018 06:00:00 16,0 15,0 4 2 ENE - 10
13.06.2018 05:00:00 17,0 16,2 4 2 NNW 1010,8 15
13.06.2018 04:00:00 17,0 16,0 5 3 S - 10
13.06.2018 03:00:00 18,0 18,0 9 5 NNW - 10
13.06.2018 02:00:00 19,0 18,4 5 3 NW 1011,9 14

tt = Température de l'air
td = dewpoint
ff = Vitesse du vent
dd = Direction du vent
ppp = reduced air pressure
vv = visibility

stations d'obs. à proximité